| time (UTC) | temp F | wind direction | speed MPH | gust MPH | rain 1hr in | rain 24hr in | rain mn in | humidity % | barometer mb |
| 20260906191536 | 73 | 245 | 3.0 | 3.0 | 0.00 | 0.00 | 0.00 | 56 | 1016.3 |
| 20260906191035 | 72 | 332 | 6.0 | 8.0 | 0.00 | 0.00 | 0.00 | 56 | 1016.6 |
| 20260906190535 | 73 | 310 | 9.0 | 11.0 | 0.00 | 0.00 | 0.00 | 54 | 1016.5 |
| 20260906190030 | 73 | 349 | 4.0 | 5.0 | 0.00 | 0.00 | 0.00 | 54 | 1016.8 |
| 20260906185528 | 71 | 287 | 4.0 | 5.0 | 0.00 | 0.00 | 0.00 | 57 | 1016.7 |
| 20260906185027 | 71 | 357 | 3.0 | 3.0 | 0.00 | 0.00 | 0.00 | 57 | 1016.9 |
| 20260906184523 | 72 | 326 | 5.0 | 7.0 | 0.00 | 0.00 | 0.00 | 56 | 1016.7 |
| 20260906184019 | 73 | 312 | 3.0 | 3.0 | 0.00 | 0.00 | 0.00 | 55 | 1016.8 |
| 20260906183515 | 72 | 356 | 5.0 | 6.0 | 0.00 | 0.00 | 0.00 | 55 | 1016.7 |
| 20260906183010 | 72 | 284 | 2.0 | 3.0 | 0.00 | 0.00 | 0.00 | 57 | 1016.8 |
| 20260906182505 | 72 | 330 | 4.0 | 5.0 | 0.00 | 0.00 | 0.00 | 55 | 1016.8 |
| 20260906182001 | 71 | 3 | 6.0 | 7.0 | 0.00 | 0.00 | 0.00 | 56 | 1016.5 |
| 20260906181456 | 72 | 311 | 6.0 | 7.0 | 0.00 | 0.00 | 0.00 | 53 | 1016.7 |
| 20260906180952 | 73 | 317 | 11.0 | 13.0 | 0.00 | 0.00 | 0.00 | 53 | 1016.9 |
| 20260906180446 | 72 | 341 | 4.0 | 5.0 | 0.00 | 0.00 | 0.00 | 54 | 1016.8 |
| 20260906175944 | 71 | 12 | 5.0 | 8.0 | 0.00 | 0.00 | 0.00 | 54 | 1016.9 |
| 20260906175439 | 73 | 15 | 5.0 | 7.0 | 0.00 | 0.00 | 0.00 | 53 | 1016.8 |
| 20260906174937 | 73 | 308 | 5.0 | 6.0 | 0.00 | 0.00 | 0.00 | 55 | 1016.7 |
| 20260906174432 | 72 | 287 | 4.0 | 5.0 | 0.00 | 0.00 | 0.00 | 57 | 1016.9 |
| 20260906173927 | 72 | 340 | 4.0 | 7.0 | 0.00 | 0.00 | 0.00 | 55 | 1017.0 |
| 20260906173422 | 71 | 25 | 3.0 | 3.0 | 0.00 | 0.00 | 0.00 | 56 | 1016.9 |
| 20260906172921 | 72 | 30 | 5.0 | 7.0 | 0.00 | 0.00 | 0.00 | 57 | 1016.9 |
| 20260906172418 | 72 | 8 | 8.0 | 11.0 | 0.00 | 0.00 | 0.00 | 55 | 1016.8 |
| 20260906171913 | 72 | 335 | 4.0 | 6.0 | 0.00 | 0.00 | 0.00 | 55 | 1017.0 |
| 20260906171407 | 71 | 59 | 5.0 | 6.0 | 0.00 | 0.00 | 0.00 | 56 | 1016.9 |
| 20260906170903 | 71 | 352 | 5.0 | 6.0 | 0.00 | 0.00 | 0.00 | 58 | 1017.2 |
| 20260906170359 | 71 | 313 | 4.0 | 6.0 | 0.00 | 0.00 | 0.00 | 58 | 1017.1 |
| 20260906165856 | 71 | 337 | 5.0 | 7.0 | 0.00 | 0.00 | 0.00 | 59 | 1017.1 |
| 20260906165355 | 71 | 326 | 3.0 | 5.0 | 0.00 | 0.00 | 0.00 | 57 | 1017.1 |
| 20260906164850 | 71 | 350 | 6.0 | 7.0 | 0.00 | 0.00 | 0.00 | 59 | 1016.9 |
| 20260906164349 | 70 | 53 | 7.0 | 8.0 | 0.00 | 0.00 | 0.00 | 58 | 1017.2 |
| 20260906163845 | 71 | 59 | 5.0 | 8.0 | 0.00 | 0.00 | 0.00 | 57 | 1017.0 |
| 20260906163341 | 70 | 82 | 3.0 | 6.0 | 0.00 | 0.00 | 0.00 | 59 | 1017.0 |
| 20260906162839 | 70 | 45 | 6.0 | 7.0 | 0.00 | 0.00 | 0.00 | 61 | 1017.2 |
| 20260906162337 | 71 | 68 | 5.0 | 6.0 | 0.00 | 0.00 | 0.00 | 60 | 1017.1 |
| 20260906161832 | 70 | 5 | 4.0 | 5.0 | 0.00 | 0.00 | 0.00 | 62 | 1017.3 |
| 20260906161326 | 70 | 305 | 3.0 | 3.0 | 0.00 | 0.00 | 0.00 | 60 | 1017.2 |
| 20260906160825 | 70 | 11 | 5.0 | 6.0 | 0.00 | 0.00 | 0.00 | 63 | 1017.3 |
| 20260906160319 | 71 | 98 | 7.0 | 8.0 | 0.00 | 0.00 | 0.00 | 58 | 1017.3 |
| 20260906155817 | 71 | 348 | 2.0 | 2.0 | 0.00 | 0.00 | 0.00 | 61 | 1017.4 |
| 20260906155311 | 70 | 24 | 5.0 | 6.0 | 0.00 | 0.00 | 0.00 | 62 | 1017.3 |
| 20260906154807 | 70 | 26 | 5.0 | 6.0 | 0.00 | 0.00 | 0.00 | 65 | 1017.5 |
| 20260906154302 | 69 | 54 | 7.0 | 8.0 | 0.00 | 0.00 | 0.00 | 65 | 1017.3 |
| 20260906153800 | 69 | 58 | 3.0 | 5.0 | 0.00 | 0.00 | 0.00 | 65 | 1017.4 |
| 20260906153255 | 69 | 26 | 6.0 | 8.0 | 0.00 | 0.00 | 0.00 | 65 | 1017.3 |
| 20260906152750 | 68 | 359 | 3.0 | 5.0 | 0.00 | 0.00 | 0.00 | 70 | 1017.2 |
| 20260906152245 | 68 | 46 | 2.0 | 2.0 | 0.00 | 0.00 | 0.00 | 72 | 1017.4 |
| 20260906151744 | 68 | 324 | 2.0 | 2.0 | 0.00 | 0.00 | 0.00 | 72 | 1017.2 |
| 20260906151240 | 68 | 26 | 3.0 | 3.0 | 0.00 | 0.00 | 0.00 | 73 | 1017.3 |
| 20260906150736 | 68 | 31 | 6.0 | 7.0 | 0.00 | 0.00 | 0.00 | 74 | 1017.3 |
| 20260906150231 | 67 | 24 | 5.0 | 6.0 | 0.00 | 0.00 | 0.00 | 75 | 1017.3 |
| 20260906145730 | 67 | 40 | 2.0 | 5.0 | 0.00 | 0.00 | 0.00 | 76 | 1017.1 |
| 20260906145229 | 67 | 23 | 3.0 | 3.0 | 0.00 | 0.00 | 0.00 | 77 | 1017.1 |
| 20260906144725 | 66 | 18 | 1.0 | 1.0 | 0.00 | 0.00 | 0.00 | 77 | 1017.1 |
| 20260906144219 | 67 | 54 | 2.0 | 2.0 | 0.00 | 0.00 | 0.00 | 77 | 1017.2 |
| 20260906143718 | 67 | 269 | 0.0 | 0.0 | 0.00 | 0.00 | 0.00 | 78 | 1017.1 |
| 20260906143216 | 67 | 249 | 1.0 | 1.0 | 0.00 | 0.00 | 0.00 | 77 | 1017.2 |
| 20260906142715 | 67 | 292 | 1.0 | 1.0 | 0.00 | 0.00 | 0.00 | 78 | 1017.0 |
| 20260906142211 | 66 | 280 | 1.0 | 1.0 | 0.00 | 0.00 | 0.00 | 79 | 1017.0 |
| 20260906141709 | 67 | 309 | 1.0 | 1.0 | 0.00 | 0.00 | 0.00 | 78 | 1017.1 |
| 20260906141204 | 66 | 257 | 0.0 | 0.0 | 0.00 | 0.00 | 0.00 | 80 | 1016.9 |
| 20260906140703 | 66 | 317 | 2.0 | 2.0 | 0.00 | 0.00 | 0.00 | 82 | 1017.1 |
| 20260906140159 | 66 | 300 | 1.0 | 1.0 | 0.00 | 0.00 | 0.00 | 82 | 1017.2 |
| 20260906135655 | 66 | 282 | 0.0 | 1.0 | 0.00 | 0.00 | 0.00 | 83 | 1017.0 |
| 20260906135151 | 66 | 331 | 0.0 | 0.0 | 0.00 | 0.00 | 0.00 | 82 | 1017.2 |
| 20260906134647 | 65 | 267 | 0.0 | 1.0 | 0.00 | 0.00 | 0.00 | 85 | 1017.0 |
| 20260906134142 | 64 | 266 | 0.0 | 0.0 | 0.00 | 0.00 | 0.00 | 86 | 1017.0 |
| 20260906133637 | 64 | 294 | 1.0 | 1.0 | 0.00 | 0.00 | 0.00 | 86 | 1017.2 |
| 20260906133132 | 64 | 283 | 1.0 | 1.0 | 0.00 | 0.00 | 0.00 | 89 | 1017.2 |
| 20260906132627 | 64 | 268 | 0.0 | 1.0 | 0.00 | 0.00 | 0.00 | 91 | 1017.1 |
| 20260906132123 | 63 | 268 | 1.0 | 1.0 | 0.00 | 0.00 | 0.00 | 93 | 1017.0 |
| 20260906131618 | 62 | 272 | 1.0 | 2.0 | 0.00 | 0.00 | 0.00 | 94 | 1017.2 |
| 20260906131113 | 62 | 272 | 1.0 | 1.0 | 0.00 | 0.00 | 0.00 | 95 | 1017.2 |
| 20260906130609 | 62 | 251 | 1.0 | 1.0 | 0.00 | 0.00 | 0.00 | 96 | 1017.3 |
| 20260906130104 | 62 | 231 | 1.0 | 1.0 | 0.00 | 0.00 | 0.00 | 97 | 1017.1 |
| 20260906125601 | 62 | 263 | 0.0 | 0.0 | 0.00 | 0.00 | 0.00 | 98 | 1017.2 |
| 20260906125100 | 62 | 325 | 4.0 | 5.0 | 0.00 | 0.00 | 0.00 | 98 | 1016.8 |
| 20260906124556 | 62 | 216 | 0.0 | 0.0 | 0.00 | 0.00 | 0.00 | 99 | 1016.6 |
| 20260906124051 | 61 | 260 | 0.0 | 0.0 | 0.00 | 0.00 | 0.00 | 99 | 1017.0 |
| 20260906123550 | 61 | 262 | 0.0 | 0.0 | 0.00 | 0.00 | 0.00 | 99 | 1016.8 |
| 20260906123045 | 60 | 274 | 0.0 | 0.0 | 0.00 | 0.00 | 0.00 | 99 | 1016.8 |
| 20260906122544 | 60 | 77 | 1.0 | 2.0 | 0.00 | 0.00 | 0.00 | 99 | 1016.9 |
| 20260906122041 | 59 | 309 | 0.0 | 0.0 | 0.00 | 0.00 | 0.00 | 99 | 1016.9 |
| 20260906121536 | 59 | 64 | 2.0 | 2.0 | 0.00 | 0.00 | 0.00 | 99 | 1016.7 |
| 20260906121033 | 59 | 21 | 1.0 | 1.0 | 0.00 | 0.00 | 0.00 | 99 | 1016.7 |
| 20260906120528 | 59 | 52 | 2.0 | 2.0 | 0.00 | 0.00 | 0.00 | 99 | 1016.7 |
| 20260906120025 | 59 | 72 | 2.0 | 2.0 | 0.00 | 0.00 | 0.00 | 99 | 1016.6 |
| 20260906115525 | 59 | 46 | 2.0 | 2.0 | 0.00 | 0.00 | 0.00 | 99 | 1016.7 |
| 20260906115020 | 59 | 48 | 1.0 | 2.0 | 0.00 | 0.00 | 0.00 | 99 | 1016.6 |
| 20260906114514 | 59 | 58 | 1.0 | 2.0 | 0.00 | 0.00 | 0.00 | 99 | 1016.5 |
| 20260906114010 | 60 | 48 | 0.0 | 0.0 | 0.00 | 0.00 | 0.00 | 99 | 1016.6 |
| 20260906113509 | 60 | 291 | 0.0 | 0.0 | 0.00 | 0.00 | 0.00 | 99 | 1016.3 |
| 20260906113004 | 59 | 288 | 0.0 | 0.0 | 0.00 | 0.00 | 0.00 | 99 | 1016.5 |
| 20260906112458 | 58 | 282 | 0.0 | 0.0 | 0.00 | 0.00 | 0.00 | 99 | 1016.3 |
| 20260906111955 | 58 | 280 | 0.0 | 0.0 | 0.00 | 0.00 | 0.00 | 99 | 1016.6 |
| 20260906111449 | 58 | 295 | 0.0 | 0.0 | 0.00 | 0.00 | 0.00 | 99 | 1016.5 |
| 20260906110944 | 58 | 228 | 0.0 | 0.0 | 0.00 | 0.00 | 0.00 | 99 | 1016.2 |
| 20260906110439 | 58 | 253 | 0.0 | 0.0 | 0.00 | 0.00 | 0.00 | 99 | 1016.2 |
| 20260906105938 | 58 | 257 | 0.0 | 0.0 | 0.00 | 0.00 | 0.00 | 99 | 1016.1 |
| 20260906105434 | 58 | 268 | 0.0 | 0.0 | 0.00 | 0.00 | 0.00 | 99 | 1015.9 |
| 20260906104930 | 58 | 253 | 0.0 | 0.0 | 0.00 | 0.00 | 0.00 | 99 | 1016.1 |
| 20260906104428 | 58 | 230 | 0.0 | 0.0 | 0.00 | 0.00 | 0.00 | 99 | 1016.1 |
| 20260906103927 | 58 | 342 | 0.0 | 0.0 | 0.00 | 0.00 | 0.00 | 99 | 1015.7 |
| 20260906103426 | 58 | 64 | 0.0 | 0.0 | 0.00 | 0.00 | 0.00 | 99 | 1016.0 |
| 20260906102921 | 58 | 327 | 0.0 | 0.0 | 0.00 | 0.00 | 0.00 | 99 | 1016.0 |
| 20260906102421 | 58 | 290 | 0.0 | 0.0 | 0.00 | 0.00 | 0.00 | 99 | 1015.8 |
| 20260906101916 | 58 | 275 | 0.0 | 0.0 | 0.00 | 0.00 | 0.00 | 99 | 1016.0 |
| 20260906101411 | 58 | 278 | 0.0 | 0.0 | 0.00 | 0.00 | 0.00 | 99 | 1015.9 |
| 20260906100907 | 58 | 282 | 0.0 | 0.0 | 0.00 | 0.00 | 0.00 | 99 | 1015.9 |
| 20260906100406 | 58 | 297 | 0.0 | 0.0 | 0.00 | 0.00 | 0.00 | 99 | 1015.7 |
| 20260906095900 | 58 | 274 | 0.0 | 0.0 | 0.00 | 0.00 | 0.00 | 99 | 1015.7 |
| 20260906095356 | 58 | 269 | 0.0 | 0.0 | 0.00 | 0.00 | 0.00 | 99 | 1015.7 |
| 20260906094850 | 58 | 271 | 0.0 | 0.0 | 0.00 | 0.00 | 0.00 | 99 | 1015.6 |
| 20260906094345 | 58 | 311 | 0.0 | 0.0 | 0.00 | 0.00 | 0.00 | 99 | 1015.4 |
| 20260906093841 | 57 | 282 | 0.0 | 0.0 | 0.00 | 0.00 | 0.00 | 99 | 1015.2 |
| 20260906093337 | 57 | 250 | 0.0 | 0.0 | 0.00 | 0.00 | 0.00 | 99 | 1015.5 |
| 20260906092831 | 57 | 224 | 0.0 | 0.0 | 0.00 | 0.00 | 0.00 | 99 | 1015.4 |
| 20260906092331 | 57 | 245 | 0.0 | 0.0 | 0.00 | 0.00 | 0.00 | 99 | 1015.0 |
| 20260906091827 | 57 | 267 | 0.0 | 0.0 | 0.00 | 0.00 | 0.00 | 99 | 1015.1 |
| 20260906091323 | 57 | 260 | 0.0 | 0.0 | 0.00 | 0.00 | 0.00 | 99 | 1015.1 |
| 20260906090820 | 57 | 244 | 0.0 | 0.0 | 0.00 | 0.00 | 0.00 | 99 | 1014.9 |
| 20260906090319 | 57 | 268 | 0.0 | 0.0 | 0.00 | 0.00 | 0.00 | 99 | 1015.0 |
| 20260906085818 | 57 | 265 | 0.0 | 0.0 | 0.00 | 0.00 | 0.00 | 99 | 1015.0 |
| 20260906085311 | 57 | 276 | 0.0 | 0.0 | 0.00 | 0.00 | 0.00 | 99 | 1014.9 |
| 20260906084807 | 57 | 272 | 0.0 | 0.0 | 0.00 | 0.00 | 0.00 | 99 | 1014.9 |
| 20260906084306 | 57 | 266 | 0.0 | 0.0 | 0.00 | 0.00 | 0.00 | 99 | 1015.1 |
| 20260906083801 | 57 | 266 | 0.0 | 0.0 | 0.00 | 0.00 | 0.00 | 99 | 1014.7 |
| 20260906083257 | 57 | 271 | 0.0 | 0.0 | 0.00 | 0.00 | 0.00 | 99 | 1014.8 |
| 20260906082751 | 57 | 289 | 0.0 | 0.0 | 0.00 | 0.00 | 0.00 | 99 | 1014.6 |
| 20260906082246 | 57 | 7 | 0.0 | 0.0 | 0.00 | 0.00 | 0.00 | 99 | 1014.8 |
| 20260906081742 | 57 | 270 | 0.0 | 0.0 | 0.00 | 0.00 | 0.00 | 99 | 1014.4 |
| 20260906081238 | 57 | 273 | 0.0 | 0.0 | 0.00 | 0.00 | 0.00 | 99 | 1014.4 |
| 20260906080734 | 57 | 271 | 0.0 | 0.0 | 0.00 | 0.00 | 0.00 | 99 | 1014.6 |
| 20260906080230 | 57 | 265 | 0.0 | 0.0 | 0.00 | 0.00 | 0.00 | 99 | 1014.4 |
| 20260906075724 | 56 | 268 | 0.0 | 0.0 | 0.00 | 0.00 | 0.00 | 99 | 1014.5 |
| 20260906075224 | 56 | 271 | 0.0 | 0.0 | 0.00 | 0.00 | 0.00 | 99 | 1014.6 |
| 20260906074719 | 56 | 271 | 0.0 | 0.0 | 0.00 | 0.00 | 0.00 | 99 | 1014.8 |
| 20260906074218 | 56 | 277 | 0.0 | 0.0 | 0.00 | 0.00 | 0.00 | 99 | 1014.8 |
| 20260906073713 | 56 | 278 | 0.0 | 0.0 | 0.00 | 0.00 | 0.00 | 99 | 1014.7 |
| 20260906073208 | 56 | 274 | 0.0 | 0.0 | 0.00 | 0.00 | 0.00 | 99 | 1014.8 |
| 20260906072704 | 56 | 268 | 0.0 | 0.0 | 0.00 | 0.00 | 0.00 | 99 | 1014.7 |
| 20260906072159 | 56 | 268 | 0.0 | 0.0 | 0.00 | 0.00 | 0.00 | 99 | 1014.7 |
| 20260906071655 | 56 | 268 | 0.0 | 0.0 | 0.00 | 0.00 | 0.00 | 99 | 1014.7 |
| 20260906071154 | 56 | 276 | 0.0 | 0.0 | 0.00 | 0.00 | 0.00 | 99 | 1014.6 |
| 20260906070652 | 56 | 252 | 0.0 | 0.0 | 0.00 | 0.00 | 0.00 | 99 | 1014.6 |
| 20260906070147 | 56 | 256 | 0.0 | 0.0 | 0.00 | 0.00 | 0.00 | 99 | 1014.6 |
| 20260906065646 | 56 | 262 | 0.0 | 0.0 | 0.00 | 0.00 | 0.00 | 99 | 1014.6 |
| 20260906065142 | 56 | 252 | 0.0 | 0.0 | 0.00 | 0.00 | 0.00 | 99 | 1014.6 |
| 20260906064638 | 56 | 260 | 0.0 | 0.0 | 0.00 | 0.00 | 0.00 | 99 | 1014.7 |
| 20260906064133 | 56 | 268 | 0.0 | 0.0 | 0.00 | 0.00 | 0.00 | 99 | 1014.7 |
| 20260906063628 | 56 | 276 | 0.0 | 0.0 | 0.00 | 0.00 | 0.00 | 98 | 1014.9 |
| 20260906063124 | 56 | 277 | 0.0 | 0.0 | 0.00 | 0.00 | 0.00 | 98 | 1014.7 |
| 20260906062619 | 56 | 272 | 0.0 | 0.0 | 0.00 | 0.00 | 0.00 | 98 | 1014.7 |
| 20260906062118 | 56 | 272 | 0.0 | 0.0 | 0.00 | 0.00 | 0.00 | 98 | 1014.8 |
| 20260906061614 | 56 | 243 | 0.0 | 0.0 | 0.00 | 0.00 | 0.00 | 98 | 1014.8 |
| 20260906061114 | 56 | 257 | 0.0 | 0.0 | 0.00 | 0.00 | 0.00 | 98 | 1014.8 |
| 20260906060611 | 56 | 272 | 0.0 | 0.0 | 0.00 | 0.00 | 0.00 | 98 | 1014.8 |
| 20260906060108 | 57 | 270 | 0.0 | 0.0 | 0.00 | 0.00 | 0.00 | 98 | 1014.7 |
| 20260906055603 | 56 | 255 | 0.0 | 0.0 | 0.00 | 0.00 | 0.00 | 98 | 1014.9 |
| 20260906055058 | 57 | 270 | 0.0 | 0.0 | 0.00 | 0.00 | 0.00 | 98 | 1014.6 |
| 20260906054558 | 57 | 268 | 0.0 | 0.0 | 0.00 | 0.00 | 0.00 | 98 | 1014.9 |
| 20260906054054 | 57 | 260 | 0.0 | 0.0 | 0.00 | 0.00 | 0.00 | 98 | 1015.0 |
| 20260906053550 | 57 | 228 | 0.0 | 0.0 | 0.00 | 0.00 | 0.00 | 98 | 1014.8 |
| 20260906053045 | 57 | 253 | 0.0 | 0.0 | 0.00 | 0.00 | 0.00 | 98 | 1015.0 |
| 20260906052541 | 57 | 277 | 0.0 | 0.0 | 0.00 | 0.00 | 0.00 | 98 | 1014.9 |
| 20260906052038 | 57 | 264 | 0.0 | 0.0 | 0.00 | 0.00 | 0.00 | 98 | 1014.9 |
| 20260906051533 | 57 | 251 | 0.0 | 0.0 | 0.00 | 0.00 | 0.00 | 98 | 1014.8 |
| 20260906051028 | 57 | 252 | 0.0 | 0.0 | 0.00 | 0.00 | 0.00 | 98 | 1015.0 |
| 20260906050523 | 57 | 266 | 0.0 | 0.0 | 0.00 | 0.00 | 0.00 | 98 | 1014.9 |
| 20260906050018 | 57 | 269 | 0.0 | 0.0 | 0.00 | 0.00 | 0.00 | 98 | 1014.8 |
| 20260906045516 | 57 | 247 | 0.0 | 0.0 | 0.00 | 0.00 | 0.00 | 98 | 1014.8 |
| 20260906045012 | 58 | 264 | 0.0 | 0.0 | 0.00 | 0.00 | 0.00 | 98 | 1014.7 |
| 20260906044508 | 58 | 251 | 0.0 | 0.0 | 0.00 | 0.00 | 0.00 | 98 | 1014.7 |
| 20260906044003 | 58 | 268 | 0.0 | 0.0 | 0.00 | 0.00 | 0.00 | 98 | 1014.8 |
| 20260906043459 | 58 | 265 | 0.0 | 0.0 | 0.00 | 0.00 | 0.00 | 98 | 1014.8 |
| 20260906042954 | 58 | 263 | 0.0 | 0.0 | 0.00 | 0.00 | 0.00 | 98 | 1014.8 |
| 20260906042453 | 58 | 252 | 0.0 | 0.0 | 0.00 | 0.00 | 0.00 | 98 | 1014.9 |
| 20260906041953 | 58 | 275 | 0.0 | 0.0 | 0.00 | 0.00 | 0.00 | 98 | 1015.0 |
| 20260906041450 | 58 | 266 | 0.0 | 0.0 | 0.00 | 0.00 | 0.00 | 98 | 1014.7 |
| 20260906040949 | 58 | 266 | 0.0 | 0.0 | 0.00 | 0.00 | 0.00 | 97 | 1014.9 |
| 20260906040444 | 59 | 266 | 0.0 | 0.0 | 0.00 | 0.00 | 0.00 | 97 | 1014.7 |
| 20260906035939 | 59 | 264 | 0.0 | 0.0 | 0.00 | 0.00 | 0.00 | 97 | 1014.8 |
| 20260906035435 | 59 | 260 | 0.0 | 0.0 | 0.00 | 0.00 | 0.00 | 97 | 1014.8 |
| 20260906034930 | 59 | 260 | 0.0 | 0.0 | 0.00 | 0.00 | 0.00 | 97 | 1014.8 |
| 20260906034425 | 59 | 258 | 0.0 | 0.0 | 0.00 | 0.00 | 0.00 | 97 | 1014.6 |
| 20260906033920 | 59 | 258 | 0.0 | 0.0 | 0.00 | 0.00 | 0.00 | 97 | 1014.6 |
| 20260906033415 | 59 | 275 | 0.0 | 0.0 | 0.00 | 0.00 | 0.00 | 97 | 1014.6 |
| 20260906032911 | 59 | 235 | 0.0 | 0.0 | 0.00 | 0.00 | 0.00 | 97 | 1014.6 |
| 20260906032407 | 60 | 243 | 0.0 | 0.0 | 0.00 | 0.00 | 0.00 | 97 | 1014.6 |
| 20260906031901 | 60 | 252 | 0.0 | 0.0 | 0.00 | 0.00 | 0.00 | 97 | 1014.6 |
| 20260906031356 | 59 | 268 | 0.0 | 0.0 | 0.00 | 0.00 | 0.00 | 97 | 1014.5 |
| 20260906030851 | 60 | 283 | 0.0 | 0.0 | 0.00 | 0.00 | 0.00 | 97 | 1014.6 |
| 20260906030346 | 60 | 280 | 0.0 | 0.0 | 0.00 | 0.00 | 0.00 | 96 | 1014.6 |
| 20260906025841 | 60 | 280 | 0.0 | 0.0 | 0.00 | 0.00 | 0.00 | 96 | 1014.4 |
| 20260906025335 | 60 | 278 | 0.0 | 0.0 | 0.00 | 0.00 | 0.00 | 96 | 1014.4 |
| 20260906024834 | 60 | 257 | 0.0 | 0.0 | 0.00 | 0.00 | 0.00 | 96 | 1014.5 |
| 20260906024333 | 60 | 282 | 0.0 | 0.0 | 0.00 | 0.00 | 0.00 | 96 | 1014.5 |
| 20260906023829 | 61 | 277 | 0.0 | 0.0 | 0.00 | 0.00 | 0.00 | 96 | 1014.4 |
| 20260906023325 | 61 | 269 | 0.0 | 0.0 | 0.00 | 0.00 | 0.00 | 96 | 1014.5 |
| 20260906022820 | 61 | 273 | 0.0 | 0.0 | 0.00 | 0.00 | 0.00 | 96 | 1014.6 |
| 20260906022315 | 61 | 255 | 0.0 | 0.0 | 0.00 | 0.00 | 0.00 | 96 | 1014.3 |
| 20260906021811 | 61 | 265 | 0.0 | 0.0 | 0.00 | 0.00 | 0.00 | 96 | 1014.3 |
| 20260906021310 | 61 | 266 | 0.0 | 0.0 | 0.00 | 0.00 | 0.00 | 96 | 1014.3 |
| 20260906020804 | 61 | 251 | 0.0 | 0.0 | 0.00 | 0.00 | 0.00 | 96 | 1014.4 |
| 20260906020304 | 61 | 251 | 0.0 | 1.0 | 0.00 | 0.00 | 0.00 | 95 | 1014.3 |
| 20260906015759 | 61 | 231 | 0.0 | 1.0 | 0.00 | 0.00 | 0.00 | 95 | 1014.2 |
| 20260906015257 | 61 | 260 | 0.0 | 0.0 | 0.00 | 0.00 | 0.00 | 95 | 1014.5 |
| 20260906014752 | 61 | 264 | 0.0 | 0.0 | 0.00 | 0.00 | 0.00 | 94 | 1014.2 |
| 20260906014248 | 62 | 265 | 0.0 | 0.0 | 0.00 | 0.00 | 0.00 | 94 | 1014.3 |
| 20260906013744 | 62 | 260 | 0.0 | 0.0 | 0.00 | 0.00 | 0.00 | 94 | 1014.0 |
| 20260906013243 | 62 | 275 | 0.0 | 0.0 | 0.00 | 0.00 | 0.00 | 94 | 1014.0 |
| 20260906012739 | 62 | 308 | 0.0 | 0.0 | 0.00 | 0.00 | 0.00 | 93 | 1014.1 |
| 20260906012234 | 62 | 266 | 0.0 | 1.0 | 0.00 | 0.00 | 0.00 | 92 | 1014.0 |
| 20260906011729 | 63 | 244 | 0.0 | 0.0 | 0.00 | 0.00 | 0.00 | 91 | 1014.1 |
| 20260906011228 | 63 | 268 | 0.0 | 0.0 | 0.00 | 0.00 | 0.00 | 90 | 1014.1 |
| 20260906010724 | 63 | 20 | 1.0 | 1.0 | 0.00 | 0.00 | 0.00 | 91 | 1014.0 |
| 20260906010221 | 63 | 354 | 1.0 | 1.0 | 0.00 | 0.00 | 0.00 | 91 | 1014.0 |
| 20260906005720 | 63 | 27 | 1.0 | 1.0 | 0.00 | 0.00 | 0.00 | 91 | 1013.8 |
| 20260906005214 | 64 | 222 | 1.0 | 1.0 | 0.00 | 0.00 | 0.00 | 91 | 1013.8 |
| 20260906004713 | 64 | 124 | 2.0 | 2.0 | 0.00 | 0.00 | 0.00 | 90 | 1013.6 |
| 20260906004208 | 64 | 107 | 2.0 | 2.0 | 0.00 | 0.00 | 0.00 | 88 | 1013.7 |
| 20260906003658 | 65 | 297 | 0.0 | 0.0 | 0.00 | 0.00 | 0.00 | 87 | 1013.9 |
| 20260906003154 | 65 | 277 | 0.0 | 0.0 | 0.00 | 0.00 | 0.00 | 87 | 1013.5 |
| 20260906002654 | 66 | 164 | 1.0 | 1.0 | 0.00 | 0.00 | 0.00 | 85 | 1013.6 |
| 20260906002148 | 66 | 67 | 1.0 | 1.0 | 0.00 | 0.00 | 0.00 | 83 | 1013.5 |
| 20260906001644 | 66 | 355 | 1.0 | 1.0 | 0.00 | 0.00 | 0.00 | 82 | 1013.6 |
| 20260906001143 | 66 | 282 | 0.0 | 1.0 | 0.00 | 0.00 | 0.00 | 82 | 1013.6 |
| 20260906000639 | 66 | 356 | 1.0 | 2.0 | 0.00 | 0.00 | 0.00 | 83 | 1013.5 |
| 20260906000135 | 66 | 71 | 1.0 | 2.0 | 0.00 | 0.00 | 0.00 | 84 | 1013.6 |
| 20260905235633 | 67 | 55 | 1.0 | 1.0 | 0.00 | 0.00 | 0.00 | 82 | 1013.4 |
| 20260905235129 | 68 | 284 | 0.0 | 0.0 | 0.00 | 0.00 | 0.00 | 80 | 1013.4 |
| 20260905234624 | 68 | 250 | 0.0 | 0.0 | 0.00 | 0.00 | 0.00 | 78 | 1013.6 |
| 20260905234119 | 68 | 265 | 0.0 | 0.0 | 0.00 | 0.00 | 0.00 | 77 | 1013.4 |
| 20260905233614 | 68 | 301 | 1.0 | 1.0 | 0.00 | 0.00 | 0.00 | 77 | 1013.4 |
| 20260905233108 | 68 | 354 | 1.0 | 1.0 | 0.00 | 0.00 | 0.00 | 77 | 1013.5 |
| 20260905232604 | 68 | 292 | 0.0 | 1.0 | 0.00 | 0.00 | 0.00 | 77 | 1013.6 |
| 20260905232059 | 68 | 4 | 1.0 | 2.0 | 0.00 | 0.00 | 0.00 | 77 | 1013.3 |
| 20260905231554 | 69 | 3 | 3.0 | 3.0 | 0.00 | 0.00 | 0.00 | 76 | 1013.5 |
| 20260905231051 | 69 | 299 | 2.0 | 2.0 | 0.00 | 0.00 | 0.00 | 76 | 1013.3 |
| 20260905230551 | 70 | 292 | 0.0 | 1.0 | 0.00 | 0.00 | 0.00 | 74 | 1013.3 |
| 20260905230049 | 70 | 304 | 1.0 | 2.0 | 0.00 | 0.00 | 0.00 | 73 | 1013.4 |
| 20260905225549 | 70 | 265 | 1.0 | 1.0 | 0.00 | 0.00 | 0.00 | 72 | 1013.5 |
| 20260905225043 | 70 | 266 | 1.0 | 1.0 | 0.00 | 0.00 | 0.00 | 73 | 1013.3 |
| 20260905224538 | 70 | 318 | 2.0 | 2.0 | 0.00 | 0.00 | 0.00 | 72 | 1013.5 |
| 20260905224037 | 70 | 5 | 3.0 | 3.0 | 0.00 | 0.00 | 0.00 | 72 | 1013.5 |
| 20260905223535 | 70 | 334 | 1.0 | 1.0 | 0.00 | 0.00 | 0.00 | 72 | 1013.5 |
| 20260905223031 | 70 | 242 | 2.0 | 2.0 | 0.00 | 0.00 | 0.00 | 71 | 1013.5 |
| 20260905222531 | 70 | 298 | 3.0 | 3.0 | 0.00 | 0.00 | 0.00 | 72 | 1013.3 |
| 20260905222026 | 70 | 330 | 3.0 | 7.0 | 0.00 | 0.00 | 0.00 | 71 | 1013.5 |
| 20260905221522 | 71 | 314 | 2.0 | 2.0 | 0.00 | 0.00 | 0.00 | 71 | 1013.3 |
| 20260905221018 | 71 | 285 | 3.0 | 3.0 | 0.00 | 0.00 | 0.00 | 70 | 1013.3 |
| 20260905220514 | 71 | 302 | 2.0 | 3.0 | 0.00 | 0.00 | 0.00 | 71 | 1013.1 |
| 20260905220009 | 71 | 330 | 2.0 | 2.0 | 0.00 | 0.00 | 0.00 | 71 | 1013.1 |
| 20260905215504 | 72 | 351 | 3.0 | 3.0 | 0.00 | 0.00 | 0.00 | 70 | 1012.9 |
| 20260905214959 | 72 | 359 | 3.0 | 3.0 | 0.00 | 0.00 | 0.00 | 70 | 1012.9 |
| 20260905214450 | 72 | 324 | 1.0 | 1.0 | 0.00 | 0.00 | 0.00 | 72 | 1012.4 |
| 20260905213950 | 72 | 306 | 1.0 | 1.0 | 0.00 | 0.00 | 0.00 | 72 | 1012.8 |
| 20260905213446 | 72 | 274 | 3.0 | 3.0 | 0.00 | 0.00 | 0.00 | 69 | 1012.6 |
| 20260905212941 | 72 | 283 | 1.0 | 1.0 | 0.00 | 0.00 | 0.00 | 71 | 1012.6 |
| 20260905212436 | 72 | 340 | 3.0 | 3.0 | 0.00 | 0.00 | 0.00 | 70 | 1012.9 |
| 20260905211935 | 72 | 284 | 4.0 | 6.0 | 0.00 | 0.00 | 0.00 | 68 | 1012.2 |
| 20260905211431 | 72 | 10 | 2.0 | 3.0 | 0.00 | 0.00 | 0.00 | 67 | 1012.5 |
| 20260905210927 | 73 | 338 | 4.0 | 5.0 | 0.00 | 0.00 | 0.00 | 67 | 1012.4 |
| 20260905210427 | 73 | 350 | 5.0 | 8.0 | 0.00 | 0.00 | 0.00 | 67 | 1012.5 |
| 20260905205926 | 74 | 298 | 5.0 | 8.0 | 0.00 | 0.00 | 0.00 | 66 | 1012.5 |
| 20260905205421 | 73 | 300 | 4.0 | 5.0 | 0.00 | 0.00 | 0.00 | 66 | 1012.3 |
| 20260905204920 | 73 | 281 | 2.0 | 2.0 | 0.00 | 0.00 | 0.00 | 66 | 1012.4 |
| 20260905204417 | 73 | 326 | 3.0 | 3.0 | 0.00 | 0.00 | 0.00 | 65 | 1012.4 |
| 20260905203915 | 73 | 327 | 3.0 | 5.0 | 0.00 | 0.00 | 0.00 | 64 | 1012.4 |
| 20260905203411 | 73 | 347 | 3.0 | 3.0 | 0.00 | 0.00 | 0.00 | 64 | 1012.4 |
| 20260905202906 | 73 | 354 | 2.0 | 2.0 | 0.00 | 0.00 | 0.00 | 65 | 1012.3 |
| 20260905202401 | 73 | 3 | 4.0 | 5.0 | 0.00 | 0.00 | 0.00 | 63 | 1012.4 |
| 20260905201856 | 73 | 302 | 5.0 | 7.0 | 0.00 | 0.00 | 0.00 | 64 | 1012.4 |
| 20260905201352 | 73 | 275 | 3.0 | 3.0 | 0.00 | 0.00 | 0.00 | 64 | 1012.4 |
| 20260905200851 | 73 | 317 | 5.0 | 8.0 | 0.00 | 0.00 | 0.00 | 64 | 1012.4 |
| 20260905200348 | 74 | 352 | 3.0 | 3.0 | 0.00 | 0.00 | 0.00 | 64 | 1012.5 |
| 20260905195846 | 74 | 9 | 2.0 | 2.0 | 0.00 | 0.00 | 0.00 | 66 | 1012.6 |
| 20260905195341 | 74 | 7 | 4.0 | 5.0 | 0.00 | 0.00 | 0.00 | 64 | 1012.3 |
| 20260905194837 | 73 | 268 | 1.0 | 1.0 | 0.00 | 0.00 | 0.00 | 64 | 1012.3 |
| 20260905194336 | 73 | 348 | 5.0 | 6.0 | 0.00 | 0.00 | 0.00 | 63 | 1012.2 |
| 20260905193836 | 74 | 37 | 3.0 | 5.0 | 0.00 | 0.00 | 0.00 | 64 | 1012.4 |
| 20260905193330 | 74 | 6 | 2.0 | 2.0 | 0.00 | 0.00 | 0.00 | 61 | 1012.4 |
| 20260905192827 | 74 | 271 | 1.0 | 1.0 | 0.00 | 0.00 | 0.00 | 61 | 1012.4 |
| 20260905192322 | 74 | 277 | 0.0 | 1.0 | 0.00 | 0.00 | 0.00 | 64 | 1012.4 |
| 20260905191821 | 73 | 314 | 2.0 | 2.0 | 0.00 | 0.00 | 0.00 | 63 | 1012.4 |